STARLINK-3819, 52349

Orbit data source: Space-Track

STARLINK-3819, 52349 is a payload satellite owned by SpaceX/Seattle (US) in LEO that was launched on Fri, 29 Apr 2022 UTC via an FALCON 9 launch vehicle from the Air Force Eastern Test Range (AFETR). Payload-class satellites include a variety of spacecraft equipped with specific instruments for various scientific and technological missions. These include communications satellites like Starlink; space stations such as the ISS; scientific satellites like the Hubble; Earth observation satellites from companies like Planet Labs, Umbra, and HawkEye 360; GPS; miniature CubeSats for education and research; and military/defense satellites.

Loading next visibility...
Identifier
52349, 2022-045U
Orbit
LEO
Country
Flag of USUS
Related business
Manufacturer
SpaceX/Seattle
Mission
Operational Commercial Communications
Bus & Motor
STARLINK, Unknown motor
Mass
297 kg wet, ~275 kg dry
Launch date (UTC)
2022-04-29 (4 years ago)
Launch vehicle
FALCON 9
Launch site
Air Force Eastern Test Range (AFETR)
Object type
Payload
Rocket body
Debris
Shape & HBR
Box + 1 Pan, 10.1 m
Radar Cross Section
11.087 m², Large (>1 m²)

Expand to show TLE details & history
Last TLE update: 7 hours ago

TLE from 7 hours ago
0 STARLINK-3819
1 52349U 22045U   26119.84834313  .00000246  00000-0  33546-4 0  9996
2 52349  53.2180 329.4609 0001549  92.8051 267.3118 15.08838441223503
Epoch: 2026-04-29T20:21Z
TLE epoch observation values (Epoch: 2026-04-29T20:21:36.846Z)
Latitude
-0.00006°
Longitude
166.25392°
Altitude
540.696 km
Speed
7.593 km/s
True Right ascension
21h 57m 50s
True Declination
0° 00' 00"
Sunlit
Object was in daylight at epoch
Visualization orbit readout
Latitude
Unknown
Longitude
Unknown
Altitude
Unknown
Speed
Unknown
Apparent Right ascension
Unknown
Apparent Declination
Unknown
Sunlit
N/A
Visualization observer readout
Local Sidereal Time
11:14:44
Azimuth
Unknown
Elevation
Unknown
Doppler factor
Unknown
Orbital elements
Apogee altitude
541.065 km
Perigee altitude
538.921 km
Semi-major axis
6,918.13 km
Eccentricity
0.00015
Inclination
53.218°
RAAN
329.4609°
Arg. of periapsis
92.8051°
True anomaly
267.29407°
Mean anomaly
267.3118°
Eccentric anomaly
267.30293°
Mean motion
3.7719 °/min
Orbital period
95.44 mins
BSTAR
0.000033546
Loading maneuver chart data...
Computing Atmospheric mass density...

Documentation

Showing up to 5 results
|